Flag for Switzerland Weather past 2 weeks in Monthey, Valais, Switzerland

Now
40 °F

Chilly.


Feels Like: 32 °F
Forecast: 41 / 47 °F
Wind: 14 mph from Southeast

Location: Aigle

Current Time: Mar 1, 2015 at 10:05:46 AM

Latest Report: Mar 1, 2015 at 9:00 AM


Visibility: N/A

Pressure: 30.07 "Hg

Humidity: 80%

Dew point: 34 °F

Location of MontheyLocation

Historic Weather in Monthey — Graph

°F

Monthey temperature yesterday

Maximum temperature yesterday: 44 °F (at 2:00 PM)
Minimum temperature yesterday: 33 °F (at 10:00 PM)
Average temperature yesterday: 39 °F

Past Weeks' High & Low Weather Summary

 TemperatureHumidityPressure
High51 °F (Feb 14, 1:00 PM)99% (Feb 21, 9:00 PM)30.66 "Hg (Feb 21, 9:00 PM)
Low28 °F (Feb 19, 6:00 AM)35% (Feb 20, 11:00 AM)29.58 "Hg (Feb 21, 11:00 AM)
Average38 °F79%30.07 "Hg
* Reported Feb 14 8:00 AM — Mar 1 8:00 AM, Monthey, Weather by CustomWeather, © 2015

Note: Actual official high and low records may vary slightly from our data, if they occured in-between our weather recording intervals... More about our weather records

Advertising

Monthey weather history for previous 24 hours

 ConditionsComfort  
Time TempWeatherWind HumidityBarometerVisibility
8:00 AM
Sun, Mar 1
39 °FChilly.15 mph81%30.06 "HgN/A
7:00 AM41 °FFog.13 mph61%30.06 "Hg6 mi
6:00 AM41 °FQuite cool.10 mph61%30.05 "HgN/A
5:00 AM40 °FChilly.3 mph70%30.06 "HgN/A
3:00 AM38 °FChilly.12 mph73%30.05 "HgN/A
2:00 AM40 °FChilly.3 mph63%30.07 "HgN/A
1:00 AM34 °FChilly.7 mph85%30.09 "HgN/A
12:00 AM33 °FChilly.7 mph87%30.12 "HgN/A
11:00 PM
Sat, Feb 28
34 °FChilly.6 mph87%30.14 "HgN/A
10:00 PM33 °FChilly.6 mph88%30.14 "HgN/A
9:00 PM35 °FChilly.3 mph85%30.15 "HgN/A
8:00 PM35 °FChilly.2 mph90%30.16 "HgN/A
7:00 PM34 °FPassing clouds.2 mph91%30.15 "Hg28 mi
6:00 PM40 °FQuite cool.2 mph73%30.12 "HgN/A
5:00 PM42 °FQuite cool.6 mph66%30.11 "HgN/A
4:00 PM43 °FOvercast.6 mph66%30.11 "Hg19 mi
3:00 PM43 °FQuite cool.6 mph64%30.13 "HgN/A
2:00 PM44 °FQuite cool.8 mph61%30.13 "HgN/A
1:00 PM42 °FFog.6 mph69%30.15 "Hg7 mi
12:00 PM41 °FQuite cool.2 mph67%30.16 "HgN/A
11:00 AM41 °FQuite cool.2 mph73%30.18 "HgN/A
10:00 AM39 °FFog.2 mph76%30.18 "Hg7 mi
Weather by CustomWeather, © 2015

See weather overviewHow to use our weather pages